Regional Weather Roundup
Issued by NWS

Home | Current Version | Previous Version | Text Only | Print | Product List | Glossary Off
Versions: 1 2 3 4 5 6 7 8 9 10 11 12 13 14 15 16 17 18 19 20 21 22 23 24 25 26 27 28 29 30 31 32 33 34 35 36 37 38 39 40 41 42 43 44 45 46 47 48 49 50

510
ASUS43 KTOP 091708
RWRKS

WEATHER ROUNDUP FOR KANSAS
NATIONAL WEATHER SERVICE GOODLAND KS
1100 AM CST TUE FEB 09 2016

NOTE:  "FAIR" INDICATES FEW OR NO CLOUDS BELOW 12,000 FEET WITH NO
SIGNIFICANT WEATHER AND/OR OBSTRUCTIONS TO VISIBILITY.

KSZ001>006-013>018-027>032-041>047-091800-
NORTHWEST KANSAS

CITY           SKY/WX    TMP DP  RH WIND       PRES   REMARKS
GOODLAND       SUNNY     38  26  62 N10       30.29R WCI  31
HAYS           CLOUDY    37  18  44 N12       30.31R WCI  30
HILL CITY      CLOUDY    36  21  54 N9        30.32R
RUSSELL        CLOUDY    35  18  49 N18       30.30R WCI  24
$$

KSZ061>065-074>080-084>089-091800-
SOUTHWEST KANSAS

CITY           SKY/WX    TMP DP  RH WIND       PRES   REMARKS
DODGE CITY     SUNNY     42  17  36 N16G25    30.30R
ELKHART          N/A     55  27  34 W12         N/A
GARDEN CITY    SUNNY     43  25  49 N14       30.30R
GREAT BEND     CLOUDY    36  18  48 N17       30.31R WCI  25
LIBERAL        SUNNY     55  28  35 N24G31    30.30R
PRATT          CLOUDY    35  20  54 N15       30.30R WCI  25
$$

KSZ066>073-081>083-090>101-091800-
SOUTHEAST KANSAS

CITY           SKY/WX    TMP DP  RH WIND       PRES   REMARKS
CHANUTE        SUNNY     34   5  29 N15G30    30.22R WCI  24
COFFEYVILLE    SUNNY     37   9  31 N24       30.24R WCI  26
HUTCHINSON     CLOUDY    35  17  47 N22G30    30.30R WCI  23
MEDICINE LODGE   N/A    N/A N/A N/A MISG      30.30R
NEWTON         SUNNY     36  14  41 N21       30.28R WCI  24
PARSONS        SUNNY     37   7  28 NW21G28   30.23R WCI  26
WICHITA INTL   PTSUNNY   36  18  48 N26G33    30.29R WCI  24
WICHITA JABRA  PTSUNNY   37  15  40 N23G35    30.27R WCI  26
WICHITA MCCONL MOSUNNY   36  17  46 N23G31    30.28R WCI  24
WINFIELD       CLOUDY    38  19  46 NW23G31   30.29R WCI  27
$$

KSZ007>012-019>026-033>040-048>060-102>105-091800-
NORTHEAST KANSAS

CITY           SKY/WX    TMP DP  RH WIND       PRES   REMARKS
CONCORDIA      SUNNY     29   9  43 N23G32    30.31R WCI  15
EMPORIA        SUNNY     31   4  31 N26G35    30.23R WCI  17
LAWRENCE       SUNNY     27   8  44 N23G31    30.23R WCI  12
MANHATTAN      SUNNY     30   4  33 N15G26    30.29R WCI  19
MARYSVILLE     SUNNY     27   9  46 N24G30    30.27R WCI  12
OLATHE IND     SUNNY     26  10  50 NW22G28   30.20R WCI  12
OLATHE EXE     SUNNY     23   8  52 N17G28    30.19R WCI   9
SALINA         SUNNY     35  11  36 N20       30.31R WCI  24
TOPEKA BILLARD SUNNY     28   3  34 NW23G32   30.25R WCI  14
TOPEKA FORBES  SUNNY     30   5  34 NW28G35   30.22R WCI  15
$$




USA.gov is the U.S. government's official web portal to all federal, state and local government web resources and services.